Pinedale, WY

10:29 AM MST on November 22, 2017 (GMT -0700)
Wenz

Weather History for KPNA - November, 2012

Change the Weather History Date:

Tuesday, November 27, 2012

  Actual Average (KBPI) Record (KBPI)
Temperature  
Mean Temperature 22 °F -  
Max Temperature 39 °F 29 °F 48 °F (1999)
Min Temperature 5 °F 4 °F -22 °F (2015)
Degree Days  
Heating Degree Days 43    
Moisture  
Dew Point 12 °F    
Average Humidity 74    
Maximum Humidity 100    
Minimum Humidity 39    
Precipitation  
Precipitation 0.00 in - - ()
Sea Level Pressure  
Sea Level Pressure 30.26 in    
Wind  
Wind Speed 5 mph (WNW)    
Max Wind Speed 9 mph    
Max Gust Speed -    
Visibility 10 miles    
Events      
Averages and records for this station are not official NWS values.
T = Trace of Precipitation, MM = Missing Value Source: NWS Daily Summary

Daily Weather History Graph

Daily Weather History Graph

Search for Another Location

Airport or City:

Trip Planner

Search our weather history database for the weather conditions in past years. The results will help you decide how hot, cold, wet, or windy it might be!

Date:

Astronomy

Nov. 27, 2012 Rise Set
Actual Time 7:26 AM MST 4:47 PM MST
Civil Twilight 6:54 AM MST 5:18 PM MST
Nautical Twilight 6:19 AM MST 5:53 PM MST
Astronomical Twilight 5:45 AM MST 6:27 PM MST
Moon 4:21 PM MST (11/27) 6:33 AM MST (11/27)
Length of Visible Light 10h 24m
Length of Day
9h 21m
Waxing Gibbous, 99% of the Moon is Illuminated
Nov 27
Waxing Gibbous
Nov 28
Full
Dec 6
Last Quarter
Dec 13
New
Dec 19
First Quarter

Hourly Weather History & Observations

Time (MST) Temp. Windchill Dew Point Humidity Pressure Visibility Wind Dir Wind Speed Gust Speed Precip Events Conditions
12:15 AM 10.4 °F 2.2 °F 8.6 °F 92% 30.26 in 10.0 mi WNW 4.6 mph - N/A   Scattered Clouds
12:35 AM 10.4 °F -1.5 °F 8.6 °F 92% 30.25 in 10.0 mi NW 8.1 mph - N/A   Scattered Clouds
12:55 AM 10.4 °F 0.8 °F 6.8 °F 85% 30.24 in 10.0 mi NW 5.8 mph - N/A   Clear
1:15 AM 10.4 °F -0.4 °F 5.0 °F 79% 30.25 in 10.0 mi NW 6.9 mph - N/A   Clear
1:35 AM 8.6 °F -3.7 °F 5.0 °F 85% 30.24 in 10.0 mi NW 8.1 mph - N/A   Scattered Clouds
1:55 AM 8.6 °F -3.7 °F 5.0 °F 85% 30.25 in 10.0 mi WNW 8.1 mph - N/A   Scattered Clouds
2:15 AM 8.6 °F 2.0 °F 3.2 °F 79% 30.24 in 10.0 mi WNW 3.5 mph - N/A   Scattered Clouds
2:35 AM 8.6 °F 0.1 °F 3.2 °F 79% 30.24 in 10.0 mi NW 4.6 mph - N/A   Scattered Clouds
2:55 AM 8.6 °F 0.1 °F 3.2 °F 79% 30.24 in 10.0 mi NW 4.6 mph - N/A   Clear
3:15 AM 8.6 °F -1.3 °F 3.2 °F 79% 30.24 in 10.0 mi WNW 5.8 mph - N/A   Clear
3:35 AM 6.8 °F -3.5 °F 3.2 °F 85% 30.24 in 10.0 mi WNW 5.8 mph - N/A   Scattered Clouds
3:55 AM 6.8 °F -3.5 °F 3.2 °F 85% 30.23 in 10.0 mi West 5.8 mph - N/A   Scattered Clouds
4:15 AM 8.6 °F -1.3 °F 3.2 °F 79% 30.23 in 10.0 mi West 5.8 mph - N/A   Scattered Clouds
4:35 AM 8.6 °F -3.7 °F 3.2 °F 79% 30.23 in 10.0 mi NW 8.1 mph - N/A   Clear
4:55 AM 8.6 °F 0.1 °F 5.0 °F 85% 30.23 in 10.0 mi NW 4.6 mph - N/A   Clear
5:15 AM 8.6 °F -4.7 °F 3.2 °F 79% 30.23 in 10.0 mi NW 9.2 mph - N/A   Clear
5:35 AM 8.6 °F -1.3 °F 3.2 °F 79% 30.24 in 10.0 mi WNW 5.8 mph - N/A   Scattered Clouds
5:55 AM 6.8 °F -3.5 °F 3.2 °F 85% 30.24 in 10.0 mi WNW 5.8 mph - N/A   Scattered Clouds
6:15 AM 5.0 °F -2.1 °F 3.2 °F 92% 30.24 in 10.0 mi West 3.5 mph - N/A   Scattered Clouds
6:35 AM 5.0 °F -4.1 °F 3.2 °F 92% 30.25 in 10.0 mi West 4.6 mph - N/A   Clear
6:55 AM 6.8 °F -3.5 °F 3.2 °F 85% 30.26 in 10.0 mi West 5.8 mph - N/A   Clear
7:15 AM 8.6 °F -1.3 °F 3.2 °F 79% 30.26 in 10.0 mi WNW 5.8 mph - N/A   Clear
7:35 AM 8.6 °F -1.3 °F 3.2 °F 79% 30.26 in 10.0 mi WNW 5.8 mph - N/A   Clear
7:55 AM 8.6 °F -1.3 °F 3.2 °F 79% 30.27 in 10.0 mi West 5.8 mph - N/A   Clear
8:15 AM 8.6 °F 2.0 °F 5.0 °F 85% 30.28 in 10.0 mi West 3.5 mph - N/A   Clear
8:35 AM 12.2 °F - 6.8 °F 79% 30.29 in 10.0 mi Calm Calm - N/A   Clear
8:55 AM 14.0 °F - 8.6 °F 79% 30.29 in 10.0 mi Calm Calm - N/A   Clear
9:55 AM 21.2 °F - 15.8 °F 80% 30.29 in 10.0 mi Calm Calm - N/A   Clear
10:15 AM 23.0 °F 17.0 °F 17.6 °F 80% 30.30 in 10.0 mi ENE 4.6 mph - N/A   Scattered Clouds
10:35 AM 24.8 °F 19.1 °F 17.6 °F 74% 30.30 in 10.0 mi ESE 4.6 mph - N/A   Clear
10:55 AM 26.6 °F 20.0 °F 19.4 °F 74% 30.30 in 10.0 mi East 5.8 mph - N/A   Clear
11:15 AM 28.4 °F 22.2 °F 17.6 °F 64% 30.29 in 10.0 mi East 5.8 mph - N/A   Clear
11:35 AM 30.2 °F 24.3 °F 17.6 °F 60% 30.29 in 10.0 mi East 5.8 mph - N/A   Clear
11:55 AM 32.0 °F 26.4 °F 15.8 °F 51% 30.29 in 10.0 mi SE 5.8 mph - N/A   Clear
12:15 PM 32.0 °F 28.7 °F 14.0 °F 48% 30.27 in 10.0 mi SSE 3.5 mph - N/A   Clear
12:35 PM 33.8 °F 29.6 °F 15.8 °F 48% 30.27 in 10.0 mi SE 4.6 mph - N/A   Clear
12:55 PM 35.6 °F 32.8 °F 15.8 °F 44% 30.26 in 10.0 mi ESE 3.5 mph - N/A   Clear
1:15 PM 37.4 °F - 17.6 °F 45% 30.26 in 10.0 mi Calm Calm - N/A   Clear
1:35 PM 39.2 °F - 17.6 °F 42% 30.26 in 10.0 mi Calm Calm - N/A   Clear
1:55 PM 39.2 °F - 15.8 °F 39% 30.26 in 10.0 mi Calm Calm - N/A   Clear
2:15 PM 39.2 °F 35.0 °F 17.6 °F 42% 30.25 in 10.0 mi SSW 5.8 mph - N/A   Clear
2:35 PM 37.4 °F - 17.6 °F 45% 30.25 in 10.0 mi Calm Calm - N/A   Scattered Clouds
2:55 PM 39.2 °F 35.9 °F 17.6 °F 42% 30.25 in 10.0 mi SSW 4.6 mph - N/A   Clear
3:15 PM 37.4 °F - 17.6 °F 45% 30.25 in 10.0 mi Calm Calm - N/A   Clear
3:55 PM 37.4 °F - 17.6 °F 45% 30.25 in 10.0 mi Calm Calm - N/A   Clear
4:15 PM 35.6 °F 32.8 °F 17.6 °F 48% 30.26 in 10.0 mi SW 3.5 mph - N/A   Clear
4:35 PM 33.8 °F 30.8 °F 17.6 °F 52% 30.26 in 10.0 mi SSW 3.5 mph - N/A   Clear
4:55 PM 32.0 °F 27.5 °F 15.8 °F 51% 30.26 in 10.0 mi SW 4.6 mph - N/A   Clear
5:15 PM 32.0 °F - 17.6 °F 55% 30.27 in 10.0 mi Calm Calm - N/A   Clear
5:35 PM 28.4 °F 24.6 °F 19.4 °F 69% 30.27 in 10.0 mi NNW 3.5 mph - N/A   Clear
5:55 PM 26.6 °F - 19.4 °F 74% 30.27 in 10.0 mi Calm Calm - N/A   Clear
6:15 PM 28.4 °F 23.3 °F 19.4 °F 69% 30.27 in 10.0 mi North 4.6 mph - N/A   Clear
6:35 PM 24.8 °F - 17.6 °F 74% 30.27 in 10.0 mi Calm Calm - N/A   Scattered Clouds
6:55 PM 26.6 °F - 17.6 °F 69% 30.27 in 10.0 mi Calm Calm - N/A   Scattered Clouds
7:15 PM 23.0 °F 18.4 °F 17.6 °F 80% 30.27 in 10.0 mi WNW 3.5 mph - N/A   Clear
7:35 PM 23.0 °F 14.7 °F 19.4 °F 86% 30.27 in 10.0 mi WNW 6.9 mph - N/A   Clear
7:55 PM 21.2 °F 13.6 °F 17.6 °F 86% 30.28 in 10.0 mi WNW 5.8 mph - N/A   Scattered Clouds
8:15 PM 21.2 °F 14.9 °F 17.6 °F 86% 30.28 in 10.0 mi NW 4.6 mph - N/A   Clear
8:35 PM 21.2 °F - 17.6 °F 86% 30.27 in 10.0 mi Calm Calm - N/A   Clear
8:55 PM 21.2 °F 12.6 °F 17.6 °F 86% 30.27 in 10.0 mi WNW 6.9 mph - N/A   Clear
9:15 PM 19.4 °F 11.5 °F 17.6 °F 93% 30.27 in 10.0 mi West 5.8 mph - N/A   Scattered Clouds
9:35 PM 19.4 °F 11.5 °F 17.6 °F 93% 30.27 in 10.0 mi WNW 5.8 mph - N/A   Scattered Clouds
9:55 PM 19.4 °F 10.4 °F 17.6 °F 93% 30.28 in 10.0 mi WNW 6.9 mph - N/A   Clear
10:15 PM 19.4 °F 10.4 °F 15.8 °F 86% 30.28 in 10.0 mi WNW 6.9 mph - N/A   Clear
10:35 PM 17.6 °F 8.2 °F 17.6 °F 100% 30.29 in 10.0 mi WNW 6.9 mph - N/A   Clear
10:55 PM 17.6 °F 9.3 °F 15.8 °F 93% 30.29 in 10.0 mi WNW 5.8 mph - N/A   Clear
11:15 PM 17.6 °F 10.7 °F 15.8 °F 93% 30.29 in 10.0 mi WNW 4.6 mph - N/A   Clear
11:35 PM 17.6 °F 8.2 °F 15.8 °F 93% 30.29 in 10.0 mi WNW 6.9 mph - N/A   Clear
11:55 PM 17.6 °F 12.3 °F 15.8 °F 93% 30.29 in 10.0 mi WNW 3.5 mph - N/A   Clear